When you browse on this site, cookies collect data to enhance your experience and personalize the content and advertising you see.
Visit our Privacy Policy to learn more. By continuing to use the site, you agree to this use of cookies and data.
  • Em Portugal
  • Lista de países
  • Para 7 dias
  • Temperatura da água
  • Mapa do tempo
  • Widgets de tempo
  • user-avatar
    Iniciar Sessão

    Previsão horária em Silkhet

    Hoje, 26 Maio, Terça-feira

    Tempo Temperatura Precipitação Vento Pressão Humidade
    00:00 +28°C° 0 mm 1 m/s 754 mmHg 91%
    01:00 +28°C° 0.2 mm 2 m/s 753 mmHg 91%
    02:00 +28°C° 0.2 mm 2 m/s 753 mmHg 91%
    03:00 +28°C° 0.2 mm 3 m/s 752 mmHg 90%
    04:00 +28°C° 0.3 mm 3 m/s 753 mmHg 90%
    05:00 +28°C° 0.3 mm 3 m/s 753 mmHg 89%
    06:00 +29°C° 0 mm 2 m/s 753 mmHg 88%
    07:00 +30°C° 0.3 mm 3 m/s 754 mmHg 82%
    08:00 +32°C° 0.3 mm 4 m/s 754 mmHg 76%
    09:00 +33°C° 0.3 mm 6 m/s 754 mmHg 71%
    10:00 +34°C° 0.1 mm 6 m/s 754 mmHg 67%
    11:00 +35°C° 0.1 mm 6 m/s 753 mmHg 63%
    12:00 +36°C° 0 mm 6 m/s 754 mmHg 58%
    13:00 +36°C° 0 mm 5 m/s 753 mmHg 57%
    14:00 +37°C° 0 mm 5 m/s 752 mmHg 55%
    15:00 +37°C° 0 mm 5 m/s 751 mmHg 54%
    16:00 +36°C° 1 mm 5 m/s 751 mmHg 60%
    17:00 +34°C° 1 mm 6 m/s 751 mmHg 66%
    18:00 +33°C° 0 mm 5 m/s 752 mmHg 70%
    19:00 +32°C° 0.2 mm 4 m/s 753 mmHg 73%
    20:00 +30°C° 0.2 mm 4 m/s 753 mmHg 76%
    21:00 +29°C° 0.2 mm 3 m/s 754 mmHg 79%
    22:00 +29°C° 0.1 mm 3 m/s 754 mmHg 81%
    23:00 +29°C° 0.1 mm 2 m/s 754 mmHg 83%

    Amanhã, 27 Maio, Quarta-feira

    Tempo Temperatura Precipitação Vento Pressão Humidade
    00:00 +28°C° 0.1 mm 2 m/s 754 mmHg 85%
    01:00 +28°C° 0.2 mm 2 m/s 753 mmHg 87%
    02:00 +28°C° 0.2 mm 2 m/s 753 mmHg 88%
    03:00 +28°C° 0.2 mm 1 m/s 753 mmHg 89%
    04:00 +28°C° 0.5 mm 2 m/s 753 mmHg 89%
    05:00 +28°C° 0.5 mm 3 m/s 753 mmHg 89%
    06:00 +28°C° 0.5 mm 3 m/s 753 mmHg 89%
    07:00 +30°C° 0.8 mm 4 m/s 753 mmHg 82%
    08:00 +32°C° 0.8 mm 5 m/s 754 mmHg 75%
    09:00 +34°C° 0.8 mm 6 m/s 754 mmHg 67%
    10:00 +34°C° 1.2 mm 6 m/s 754 mmHg 67%
    11:00 +34°C° 1.2 mm 5 m/s 754 mmHg 67%
    12:00 +34°C° 1.2 mm 4 m/s 753 mmHg 67%
    13:00 +35°C° 1.9 mm 4 m/s 753 mmHg 66%
    14:00 +35°C° 1.9 mm 4 m/s 752 mmHg 65%
    15:00 +35°C° 1.9 mm 4 m/s 751 mmHg 63%
    16:00 +34°C° 2.5 mm 5 m/s 751 mmHg 69%
    17:00 +32°C° 2.5 mm 6 m/s 750 mmHg 75%
    18:00 +29°C° 2.5 mm 6 m/s 750 mmHg 81%
    19:00 +27°C° 9.7 mm 6 m/s 751 mmHg 86%
    20:00 +26°C° 9.7 mm 6 m/s 752 mmHg 90%
    21:00 +25°C° 9.7 mm 5 m/s 753 mmHg 95%
    22:00 +24°C° 0.9 mm 6 m/s 753 mmHg 94%
    23:00 +24°C° 0.9 mm 6 m/s 754 mmHg 93%

    Depois de amanhã, 28 Maio, Quinta-feira

    Tempo Temperatura Precipitação Vento Pressão Humidade
    00:00 +24°C° 0.9 mm 6 m/s 754 mmHg 92%
    01:00 +24°C° 0.2 mm 6 m/s 753 mmHg 92%
    02:00 +23°C° 0.2 mm 5 m/s 753 mmHg 92%
    03:00 +23°C° 0.2 mm 5 m/s 753 mmHg 92%
    04:00 +23°C° 3.2 mm 5 m/s 753 mmHg 93%
    05:00 +23°C° 3.2 mm 4 m/s 753 mmHg 94%
    06:00 +23°C° 3.2 mm 4 m/s 753 mmHg 95%
    07:00 +25°C° 4.1 mm 4 m/s 754 mmHg 94%
    08:00 +25°C° 4.1 mm 4 m/s 754 mmHg 93%
    09:00 +26°C° 4.1 mm 4 m/s 755 mmHg 92%
    10:00 +26°C° 6.6 mm 4 m/s 754 mmHg 92%
    11:00 +25°C° 6.6 mm 4 m/s 754 mmHg 93%
    12:00 +25°C° 6.6 mm 4 m/s 753 mmHg 94%
    13:00 +25°C° 3.9 mm 4 m/s 753 mmHg 93%
    14:00 +26°C° 3.9 mm 4 m/s 753 mmHg 91%
    15:00 +26°C° 3.9 mm 4 m/s 752 mmHg 89%
    16:00 +26°C° 1.8 mm 4 m/s 752 mmHg 90%
    17:00 +25°C° 1.8 mm 4 m/s 752 mmHg 90%
    18:00 +25°C° 1.8 mm 4 m/s 752 mmHg 91%
    19:00 +25°C° 0.6 mm 4 m/s 752 mmHg 91%
    20:00 +23°C° 0.6 mm 4 m/s 753 mmHg 92%
    21:00 +23°C° 0.6 mm 4 m/s 754 mmHg 92%
    22:00 +23°C° 2.2 mm 4 m/s 754 mmHg 92%
    23:00 +23°C° 2.2 mm 4 m/s 754 mmHg 92%

    29 Maio, Sexta-feira

    Tempo Temperatura Precipitação Vento Pressão Humidade
    00:00 +22°C° 2.2 mm 4 m/s 754 mmHg 92%
    01:00 +22°C° 0.4 mm 4 m/s 754 mmHg 92%
    02:00 +22°C° 0.4 mm 3 m/s 754 mmHg 91%
    03:00 +23°C° 0.4 mm 2 m/s 754 mmHg 91%
    04:00 +23°C° 1.3 mm 2 m/s 754 mmHg 91%
    05:00 +23°C° 1.3 mm 2 m/s 754 mmHg 92%
    06:00 +23°C° 1.3 mm 2 m/s 754 mmHg 92%
    07:00 +24°C° 1.1 mm 2 m/s 754 mmHg 89%
    08:00 +25°C° 1.1 mm 3 m/s 755 mmHg 87%
    09:00 +26°C° 1.1 mm 4 m/s 755 mmHg 84%
    10:00 +27°C° 0.1 mm 4 m/s 755 mmHg 80%
    11:00 +29°C° 0.1 mm 3 m/s 754 mmHg 76%
    12:00 +30°C° 0.1 mm 2 m/s 754 mmHg 72%
    13:00 +30°C° 0 mm 2 m/s 754 mmHg 71%
    14:00 +30°C° 0 mm 2 m/s 753 mmHg 70%
    15:00 +30°C° 0 mm 2 m/s 753 mmHg 70%
    16:00 +30°C° 0 mm 1 m/s 752 mmHg 72%
    17:00 +30°C° 0 mm 1 m/s 752 mmHg 74%
    18:00 +28°C° 0 mm 0 m/s 752 mmHg 76%
    19:00 +29°C° 0.5 mm 1 m/s 753 mmHg 78%
    20:00 +28°C° 0.5 mm 1 m/s 753 mmHg 80%
    21:00 +27°C° 0.5 mm 1 m/s 754 mmHg 83%
    22:00 +27°C° 2.2 mm 1 m/s 754 mmHg 85%
    23:00 +26°C° 2.2 mm 1 m/s 754 mmHg 88%

    30 Maio, Sábado

    Tempo Temperatura Precipitação Vento Pressão Humidade
    00:00 +26°C° 2.2 mm 1 m/s 754 mmHg 91%
    01:00 +26°C° 3.8 mm 1 m/s 754 mmHg 92%
    02:00 +25°C° 3.8 mm 2 m/s 754 mmHg 94%
    03:00 +25°C° 3.8 mm 2 m/s 754 mmHg 96%
    04:00 +25°C° 3 mm 2 m/s 754 mmHg 95%
    05:00 +25°C° 3 mm 2 m/s 754 mmHg 95%
    06:00 +25°C° 3 mm 2 m/s 754 mmHg 95%
    07:00 +26°C° 1.9 mm 3 m/s 755 mmHg 94%
    08:00 +26°C° 1.9 mm 3 m/s 755 mmHg 92%
    09:00 +27°C° 1.9 mm 3 m/s 756 mmHg 90%
    10:00 +28°C° 0.1 mm 3 m/s 755 mmHg 86%
    11:00 +29°C° 0.1 mm 3 m/s 755 mmHg 82%
    12:00 +31°C° 0.1 mm 3 m/s 755 mmHg 77%
    13:00 +31°C° 0.9 mm 2 m/s 754 mmHg 75%
    14:00 +32°C° 0.9 mm 2 m/s 754 mmHg 73%
    15:00 +34°C° 0.9 mm 2 m/s 753 mmHg 71%
    16:00 +32°C° 0.8 mm 2 m/s 753 mmHg 74%
    17:00 +31°C° 0.8 mm 2 m/s 753 mmHg 77%
    18:00 +31°C° 0.8 mm 1 m/s 753 mmHg 81%
    19:00 +30°C° 1.3 mm 2 m/s 753 mmHg 84%
    20:00 +29°C° 1.3 mm 2 m/s 754 mmHg 87%
    21:00 +28°C° 1.3 mm 2 m/s 754 mmHg 91%
    22:00 +28°C° 4.4 mm 2 m/s 754 mmHg 92%
    23:00 +27°C° 4.4 mm 2 m/s 754 mmHg 94%

    31 Maio, Domingo

    Tempo Temperatura Precipitação Vento Pressão Humidade
    00:00 +27°C° 4.4 mm 2 m/s 754 mmHg 95%
    01:00 +27°C° 8.1 mm 2 m/s 754 mmHg 96%
    02:00 +27°C° 8.1 mm 2 m/s 754 mmHg 96%
    03:00 +26°C° 8.1 mm 1 m/s 753 mmHg 97%
    04:00 +26°C° 3.9 mm 2 m/s 754 mmHg 97%
    05:00 +26°C° 3.9 mm 2 m/s 754 mmHg 97%
    06:00 +26°C° 3.9 mm 2 m/s 754 mmHg 97%
    07:00 +27°C° 2 mm 2 m/s 755 mmHg 95%
    08:00 +28°C° 2 mm 2 m/s 755 mmHg 93%
    09:00 +29°C° 2 mm 2 m/s 756 mmHg 91%
    10:00 +30°C° 0.5 mm 2 m/s 756 mmHg 88%
    11:00 +30°C° 0.5 mm 2 m/s 755 mmHg 85%
    12:00 +31°C° 0.5 mm 2 m/s 755 mmHg 82%
    13:00 +32°C° 0.7 mm 2 m/s 754 mmHg 80%
    14:00 +32°C° 0.7 mm 2 m/s 754 mmHg 78%
    15:00 +34°C° 0.7 mm 2 m/s 753 mmHg 76%
    16:00 +32°C° 2.4 mm 2 m/s 753 mmHg 79%
    17:00 +31°C° 2.4 mm 2 m/s 752 mmHg 83%
    18:00 +30°C° 2.4 mm 2 m/s 752 mmHg 86%
    19:00 +30°C° 1.8 mm 2 m/s 753 mmHg 88%
    20:00 +29°C° 1.8 mm 3 m/s 753 mmHg 90%
    21:00 +28°C° 1.8 mm 3 m/s 753 mmHg 92%
    22:00 +28°C° 6.1 mm 3 m/s 754 mmHg 93%
    23:00 +28°C° 6.1 mm 3 m/s 754 mmHg 93%
    Mostrar mais